Total_Precipitation_Accumulation
2.22 2.49 2.31 2.09 2.14 2.16 2.37 2.66 2.72 2.28 1.92 1.78 1.73 1.75 1.95 2.10 2.42 2.24 2.05 2.21 2.02 1.86 1.77 1.69 1.65 1.71 1.79 1.86 1.94 2.05 2.17 2.28 2.43 2.67 3.07 3.53 3.98 4.42
2.32 2.54 2.49 2.32 2.36 2.29 2.39 2.59 2.79 2.66 2.18 1.76 1.80 1.80 1.92 1.80 2.13 1.94 1.98 2.15 1.97 1.86 1.79 1.74 1.69 1.68 1.69 1.74 1.76 1.74 1.71 1.75 1.78 1.86 2.04 2.27 2.57 2.95
2.25 2.38 2.44 2.63 2.63 2.55 2.68 2.73 2.76 2.81 2.43 1.91 1.92 2.07 2.11 1.96 1.97 1.87 1.86 1.87 1.80 1.89 1.77 1.71 1.65 1.57 1.47 1.42 1.48 1.51 1.51 1.53 1.54 1.58 1.63 1.66 1.72 1.89
2.34 2.59 2.54 2.64 2.71 2.74 2.91 2.73 2.76 3.05 2.90 2.45 2.33 2.45 2.37 2.21 2.17 2.05 1.77 1.66 1.66 1.88 1.76 1.67 1.56 1.47 1.40 1.33 1.32 1.34 1.35 1.36 1.36 1.40 1.43 1.39 1.40 1.49
2.49 2.60 2.70 2.97 2.80 2.85 2.88 2.79 2.80 3.02 3.18 2.85 2.56 2.69 2.61 2.39 2.40 2.10 1.92 1.99 1.72 1.78 1.82 1.70 1.56 1.47 1.38 1.34 1.31 1.28 1.22 1.18 1.14 1.19 1.28 1.34 1.36 1.40
2.60 2.67 2.74 2.85 2.92 3.09 3.09 3.15 3.28 3.41 3.51 3.27 3.02 3.06 3.05 2.96 2.81 2.39 2.27 2.16 1.98 1.79 1.88 1.77 1.67 1.57 1.46 1.34 1.26 1.25 1.24 1.19 1.17 1.15 1.17 1.22 1.27 1.33
2.72 2.69 2.67 2.85 2.98 3.12 2.95 3.12 3.46 3.61 3.69 3.67 3.54 3.67 3.55 3.46 3.08 2.71 2.58 2.44 2.23 1.94 1.89 1.75 1.70 1.57 1.52 1.50 1.42 1.37 1.33 1.28 1.27 1.28 1.28 1.24 1.24 1.27
2.75 2.78 2.73 2.73 2.66 2.70 2.73 2.86 3.12 3.28 3.44 3.64 3.69 3.73 3.68 3.61 3.43 3.15 2.79 2.52 2.26 2.04 2.12 1.95 1.82 1.72 1.55 1.44 1.56 1.51 1.41 1.35 1.32 1.31 1.32 1.34 1.35 1.38
2.77 2.80 2.54 2.37 2.50 2.35 2.52 2.62 2.59 2.63 2.74 3.03 3.17 3.14 3.40 3.59 3.57 3.11 2.77 2.47 2.20 2.11 2.23 2.02 1.84 1.74 1.62 1.57 1.67 1.50 1.41 1.35 1.30 1.26 1.26 1.27 1.31 1.37
2.51 2.56 2.51 2.39 2.37 2.49 2.51 2.38 2.13 2.07 2.21 2.20 2.22 2.45 2.81 3.23 3.38 3.18 3.14 2.81 2.42 2.20 2.20 2.05 1.81 1.69 1.56 1.53 1.69 1.56 1.43 1.37 1.32 1.28 1.22 1.17 1.18 1.23
2.47 2.48 2.44 2.26 2.39 2.35 2.29 2.22 2.06 1.89 1.92 1.98 2.02 2.22 2.53 2.81 3.09 3.13 3.02 2.92 2.53 2.19 2.12 2.05 1.84 1.81 1.71 1.55 1.52 1.59 1.46 1.39 1.38 1.35 1.31 1.26 1.22 1.22
2.51 2.53 2.53 2.32 2.36 2.29 2.20 2.20 2.05 1.93 1.97 1.94 1.96 1.99 2.02 2.35 2.74 2.71 2.74 2.81 2.58 2.31 2.03 2.08 1.94 2.01 1.92 1.55 1.36 1.35 1.36 1.43 1.44 1.35 1.30 1.28 1.29 1.13
2.41 2.38 2.42 2.48 2.21 2.04 1.97 1.93 1.99 2.08 2.11 2.00 1.92 1.88 1.93 2.03 2.24 2.32 2.41 2.51 2.45 2.18 1.93 2.09 2.05 2.06 1.98 1.66 1.45 1.37 1.33 1.29 1.25 1.24 1.27 1.32 1.32 1.15
2.26 2.28 2.33 2.34 2.07 1.84 1.65 1.59 1.69 1.73 1.78 1.84 1.78 1.73 1.75 1.79 1.98 2.28 2.45 2.48 2.41 2.25 2.20 2.21 2.14 2.11 2.10 1.88 1.60 1.42 1.34 1.25 1.18 1.11 1.10 1.34 1.39 1.39
1.98 2.23 2.28 2.12 1.92 1.76 1.67 1.61 1.54 1.45 1.54 1.62 1.54 1.55 1.63 1.76 1.99 2.31 2.53 2.72 2.65 2.37 2.21 2.20 2.16 2.13 2.11 1.86 1.57 1.40 1.37 1.30 1.25 1.25 1.23 1.23 1.25 1.33
1.92 2.15 2.23 2.20 2.02 1.87 1.77 1.61 1.42 1.40 1.44 1.48 1.55 1.58 1.69 1.79 1.90 2.06 2.37 2.59 2.67 2.46 2.19 2.12 2.14 2.18 2.06 1.86 1.68 1.47 1.35 1.30 1.26 1.30 1.37 1.37 1.36 1.36
2.00 2.08 2.23 2.26 2.20 2.07 1.91 1.77 1.63 1.52 1.44 1.40 1.51 1.55 1.59 1.62 1.64 1.72 1.99 2.19 2.19 2.10 2.07 2.09 2.17 2.24 2.22 2.12 1.87 1.50 1.35 1.26 1.23 1.38 1.52 1.48 1.38 1.36
1.83 1.90 2.16 2.23 2.26 2.22 2.09 1.90 1.75 1.64 1.56 1.53 1.55 1.55 1.57 1.63 1.68 1.74 1.86 2.02 2.04 1.99 1.96 1.95 2.19 2.41 2.39 2.23 1.91 1.65 1.45 1.36 1.40 1.56 1.60 1.54 1.42 1.36
1.49 1.63 1.92 2.12 2.20 2.22 2.12 1.91 1.74 1.74 1.82 1.76 1.68 1.64 1.64 1.66 1.76 1.81 1.88 2.00 2.07 2.05 1.98 2.01 2.16 2.34 2.30 2.02 1.75 1.59 1.63 1.60 1.65 1.64 1.62 1.55 1.45 1.39
1.40 1.53 1.77 2.04 2.15 2.20 2.18 2.09 1.95 1.91 1.94 1.90 1.83 1.77 1.74 1.76 1.77 1.79 1.83 1.91 1.96 2.04 2.00 1.98 2.03 2.06 2.07 2.00 1.88 1.67 1.63 1.79 1.85 1.79 1.70 1.71 1.64 1.64
1.61 1.62 1.70 1.89 2.07 2.18 2.19 2.18 2.11 2.08 2.09 2.10 2.01 1.95 1.90 1.92 1.87 1.81 1.82 1.94 1.95 1.96 1.89 1.70 1.72 1.96 2.16 2.34 2.16 1.71 1.60 1.70 1.79 1.83 1.78 1.83 1.76 1.71
1.69 1.70 1.75 1.87 2.05 2.19 2.23 2.21 2.24 2.17 2.15 2.13 2.08 2.02 1.96 1.96 1.96 1.93 1.95 2.00 1.95 1.90 1.88 1.81 1.90 2.14 2.24 2.22 1.97 1.75 1.69 1.71 1.79 1.81 1.74 1.69 1.66 1.57
1.87 1.86 1.91 2.03 2.11 2.17 2.13 2.05 2.03 2.09 2.07 2.03 2.01 2.00 1.95 1.90 1.93 1.99 1.99 2.05 2.04 2.02 2.07 2.11 2.12 2.14 2.08 2.04 1.95 1.84 1.80 1.81 1.82 1.74 1.55 1.50 1.38 1.27